Regional Weather Roundup
Issued by NWS

Home | Current Version | Previous Version | Text Only | Print | Product List | Glossary Off
Versions: 1 2 3 4 5 6 7 8 9 10 11 12 13 14 15 16 17 18 19 20 21 22 23 24 25 26 27 28 29 30 31 32 33 34 35 36 37 38 39 40 41 42 43 44 45 46 47 48 49 50

000
ASUS43 KTOP 270659
RWRKS

WEATHER ROUNDUP FOR KANSAS
NATIONAL WEATHER SERVICE GOODLAND KS
200 AM CDT WED AUG 27 2014

NOTE:  "FAIR" INDICATES FEW OR NO CLOUDS BELOW 12,000 FEET WITH NO
SIGNIFICANT WEATHER AND/OR OBSTRUCTIONS TO VISIBILITY.

KSZ001>006-013>018-027>032-041>047-270800-
NORTHWEST KANSAS

CITY           SKY/WX    TMP DP  RH WIND       PRES   REMARKS
GOODLAND       CLOUDY    65  64  97 SE8       30.15F
HAYS           CLOUDY    73  64  73 SW6       30.11R
HILL CITY      CLOUDY    74  66  76 W12       30.12R
RUSSELL        CLOUDY    77  67  71 SE8       30.07F
$$

KSZ061>065-074>080-084>089-270800-
SOUTHWEST KANSAS

CITY           SKY/WX    TMP DP  RH WIND       PRES   REMARKS
DODGE CITY     MOCLDY    74  63  68 S12       30.16R
ELKHART          N/A     65  59  81 S9          N/A
GARDEN CITY    CLOUDY    68  67  96 S3        30.16R
GREAT BEND     CLOUDY    73  64  73 SE7       30.09S
LIBERAL        CLOUDY    70  63  78 W5        30.21R
$$

KSZ066>073-081>083-090>101-270800-
SOUTHEAST KANSAS

CITY           SKY/WX    TMP DP  RH WIND       PRES   REMARKS
CHANUTE        PTCLDY    75  66  73 S6        30.07S
COFFEYVILLE    CLEAR     76  67  73 CALM      30.05F
HUTCHINSON     CLOUDY    76  68  76 S6        30.08S
NEWTON         CLOUDY    75  63  64 SE8       30.11S
PARSONS        CLEAR     75  66  73 E3        30.08R
WICHITA INTL   CLOUDY    78  68  71 S7        30.07S
WICHITA JABRA  CLOUDY    78  68  71 S8        30.08S
WINFIELD       PTCLDY    76  68  76 S3        30.09R
$$

KSZ007>012-019>026-033>040-048>060-102>105-270800-
NORTHEAST KANSAS

CITY           SKY/WX    TMP DP  RH WIND       PRES   REMARKS
CONCORDIA      PTCLDY    70  69  97 E3        30.08F
EMPORIA        PTCLDY    74  68  81 S8        30.07S
LAWRENCE       MOCLDY    81  73  76 E7        30.08S
MANHATTAN      PTCLDY    74  69  85 NE6       30.06F
OLATHE IND     PTCLDY    78  73  84 E5        30.10S
OLATHE EXE     CLEAR     77  73  87 E6        30.09S
SALINA         MOCLDY    77  68  73 N8        30.08R THUNDER HAZE
TOPEKA BILLARD CLOUDY    79  75  87 E3        30.07F
TOPEKA FORBES  MOCLDY    76  73  91 S5        30.08S
$$


USA.gov is the U.S. government's official web portal to all federal, state and local government web resources and services.